Zurück zum Katalog

STARLINK-31184

AktivKommunikationVLEO
NORAD 58793·PAYLOAD·🇺🇸 United States

Gestartet Jan 15, 2024 von Cape Canaveral Space Force Station

Loading…

Nächste Überflüge (nächste 24 Stunden)

TLE

AktuellSource: CelesTrak SupGP

Epoche: Sep 14, 2026, 21:34 UTC

1 58793C 24012G   26257.89909722 -.00024234  00000+0 -87773-3 0  2577
2 58793  43.0016 176.4683 0001281 264.1318 172.0941 15.27591918    13

Verfolge STARLINK-31184 in Echtzeit mit AllMySat

Download on the App Store